Time,TemperatureF,DewpointF,PressureIn,WindDirection,WindDirectionDegrees,WindSpeedMPH,WindSpeedGustMPH,Humidity,HourlyPrecipIn,Conditions,Clouds,dailyrainin,SolarRadiationWatts/m^2,SoftwareType,DateUTC
2013-04-06 00:02:00,50.0,19.0,-100.00,WNW,298,10.0,15.0,29,0.00,,,0.00,0.000000,,2013-04-06 06:02:00,
2013-04-06 00:43:00,49.0,18.0,-100.00,NW,318,8.0,16.0,29,-99.99,,,-99.99,0.000000,,2013-04-06 06:43:00,
2013-04-06 00:52:00,49.0,18.0,-100.00,NW,318,8.0,16.0,29,-99.99,,,-99.99,0.000000,,2013-04-06 06:52:00,
2013-04-06 01:02:00,49.0,18.0,-100.00,NW,318,8.0,16.0,29,-99.99,,,-99.99,0.000000,,2013-04-06 07:02:00,
2013-04-06 01:33:00,49.0,22.0,-100.00,NNW,329,10.0,13.0,34,-99.99,,,0.00,0.000000,,2013-04-06 07:33:00,
2013-04-06 01:44:00,49.0,22.0,-100.00,NNW,329,10.0,13.0,34,-99.99,,,0.00,0.000000,,2013-04-06 07:44:00,
2013-04-06 01:52:00,49.0,22.0,-100.00,NNW,329,10.0,13.0,34,-99.99,,,0.00,0.000000,,2013-04-06 07:52:00,
2013-04-06 02:02:00,49.0,22.0,-100.00,NNW,329,10.0,13.0,34,-99.99,,,0.00,0.000000,,2013-04-06 08:02:00,
2013-04-06 02:42:00,48.0,22.0,-100.00,NNW,327,8.0,15.0,35,-99.99,,,0.00,0.000000,,2013-04-06 08:42:00,
2013-04-06 02:52:00,48.0,22.0,-100.00,NNW,327,8.0,15.0,35,-99.99,,,0.00,0.000000,,2013-04-06 08:52:00,
2013-04-06 03:02:00,48.0,22.0,-100.00,NNW,327,8.0,15.0,35,-99.99,,,0.00,0.000000,,2013-04-06 09:02:00,
2013-04-06 03:33:00,45.0,22.0,-100.00,WNW,284,4.0,8.0,39,0.00,,,-99.99,0.000000,,2013-04-06 09:33:00,
2013-04-06 03:43:00,45.0,22.0,-100.00,WNW,284,4.0,8.0,39,0.00,,,-99.99,0.000000,,2013-04-06 09:43:00,
2013-04-06 03:53:00,45.0,22.0,-100.00,WNW,284,4.0,8.0,39,0.00,,,-99.99,0.000000,,2013-04-06 09:53:00,
2013-04-06 04:02:00,45.0,22.0,-100.00,WNW,284,4.0,8.0,39,0.00,,,-99.99,0.000000,,2013-04-06 10:02:00,
2013-04-06 04:33:00,45.0,23.0,-100.00,WSW,251,5.0,8.0,42,0.00,,,0.00,0.000000,,2013-04-06 10:33:00,
2013-04-06 04:43:00,45.0,23.0,-100.00,WSW,251,5.0,8.0,42,0.00,,,0.00,0.000000,,2013-04-06 10:43:00,
2013-04-06 04:53:00,45.0,23.0,-100.00,WSW,251,5.0,8.0,42,0.00,,,0.00,0.000000,,2013-04-06 10:53:00,
2013-04-06 05:02:00,45.0,23.0,-100.00,WSW,251,5.0,8.0,42,0.00,,,0.00,0.000000,,2013-04-06 11:02:00,
2013-04-06 05:33:00,44.0,24.0,-100.00,NW,308,4.0,6.0,45,-99.99,,,0.00,0.000000,,2013-04-06 11:33:00,
2013-04-06 05:43:00,44.0,24.0,-100.00,NW,308,4.0,6.0,45,-99.99,,,0.00,0.000000,,2013-04-06 11:43:00,
2013-04-06 05:52:00,44.0,24.0,-100.00,NW,308,4.0,6.0,45,-99.99,,,0.00,0.000000,,2013-04-06 11:52:00,
2013-04-06 06:02:00,44.0,24.0,-100.00,NW,308,4.0,6.0,45,-99.99,,,0.00,0.000000,,2013-04-06 12:02:00,
2013-04-06 06:33:00,43.0,23.0,-100.00,West,268,5.0,10.0,45,0.00,,,-99.99,0.000000,,2013-04-06 12:33:00,
2013-04-06 06:44:00,43.0,23.0,-100.00,West,268,5.0,10.0,45,0.00,,,-99.99,0.000000,,2013-04-06 12:44:00,
2013-04-06 06:52:00,43.0,23.0,-100.00,West,268,5.0,10.0,45,0.00,,,-99.99,0.000000,,2013-04-06 12:52:00,
2013-04-06 07:02:00,43.0,23.0,-100.00,West,268,5.0,10.0,45,0.00,,,-99.99,0.000000,,2013-04-06 13:02:00,
2013-04-06 07:33:00,44.0,22.0,-100.00,SW,219,7.0,9.0,41,0.00,,,0.00,4.000000,,2013-04-06 13:33:00,
2013-04-06 08:33:00,45.0,25.0,-100.00,WSW,243,6.0,10.0,46,-99.99,,,0.00,100.000000,,2013-04-06 14:33:00,
2013-04-06 09:33:00,48.0,28.0,-100.00,WSW,247,7.0,11.0,45,0.00,,,0.00,231.000000,,2013-04-06 15:33:00,
2013-04-06 10:04:00,48.0,28.0,-100.00,WSW,247,7.0,11.0,45,0.00,,,0.00,231.000000,,2013-04-06 16:04:00,
2013-04-06 10:33:00,55.0,24.0,-100.00,WSW,258,8.0,13.0,30,0.00,,,0.00,562.000000,,2013-04-06 16:33:00,
2013-04-06 10:43:00,55.0,24.0,-100.00,WSW,258,8.0,13.0,30,0.00,,,0.00,562.000000,,2013-04-06 16:43:00,
2013-04-06 10:53:00,55.0,24.0,-100.00,WSW,258,8.0,13.0,30,0.00,,,0.00,562.000000,,2013-04-06 16:53:00,
2013-04-06 11:02:00,55.0,24.0,-100.00,WSW,258,8.0,13.0,30,0.00,,,0.00,562.000000,,2013-04-06 17:02:00,
2013-04-06 11:33:00,58.0,23.0,-100.00,WSW,258,9.0,22.0,26,0.00,,,0.00,687.000000,,2013-04-06 17:33:00,
2013-04-06 11:43:00,58.0,23.0,-100.00,WSW,258,9.0,22.0,26,0.00,,,0.00,687.000000,,2013-04-06 17:43:00,
2013-04-06 11:52:00,58.0,23.0,-100.00,WSW,258,9.0,22.0,26,0.00,,,0.00,687.000000,,2013-04-06 17:52:00,
2013-04-06 12:02:00,58.0,23.0,-100.00,WSW,258,9.0,22.0,26,0.00,,,0.00,687.000000,,2013-04-06 18:02:00,
2013-04-06 12:43:00,59.0,22.0,-100.00,West,264,13.0,21.0,24,0.00,,,0.00,867.000000,,2013-04-06 18:43:00,
2013-04-06 12:52:00,59.0,22.0,-100.00,West,264,13.0,21.0,24,0.00,,,0.00,867.000000,,2013-04-06 18:52:00,
2013-04-06 13:02:00,59.0,22.0,-100.00,West,264,13.0,21.0,24,0.00,,,0.00,867.000000,,2013-04-06 19:02:00,
2013-04-06 13:33:00,61.0,16.0,-100.00,West,274,13.0,22.0,17,0.00,,,0.00,955.000000,,2013-04-06 19:33:00,
2013-04-06 13:42:00,61.0,16.0,-100.00,West,274,13.0,22.0,17,0.00,,,0.00,955.000000,,2013-04-06 19:42:00,
2013-04-06 13:53:00,61.0,16.0,-100.00,West,274,13.0,22.0,17,0.00,,,0.00,955.000000,,2013-04-06 19:53:00,
2013-04-06 14:02:00,61.0,16.0,-100.00,West,274,13.0,22.0,17,0.00,,,0.00,955.000000,,2013-04-06 20:02:00,
2013-04-06 14:32:00,63.0,15.0,-100.00,West,271,12.0,26.0,15,0.00,,,0.00,958.000000,,2013-04-06 20:32:00,
2013-04-06 14:42:00,63.0,15.0,-100.00,West,271,12.0,26.0,15,0.00,,,0.00,958.000000,,2013-04-06 20:42:00,
2013-04-06 14:52:00,63.0,15.0,-100.00,West,271,12.0,26.0,15,0.00,,,0.00,958.000000,,2013-04-06 20:52:00,
2013-04-06 15:02:00,63.0,15.0,-100.00,West,271,12.0,26.0,15,0.00,,,0.00,958.000000,,2013-04-06 21:02:00,
2013-04-06 15:33:00,64.0,15.0,-100.00,WNW,282,11.0,27.0,15,0.00,,,0.00,888.000000,,2013-04-06 21:33:00,
2013-04-06 15:43:00,64.0,15.0,-100.00,WNW,282,11.0,27.0,15,0.00,,,0.00,888.000000,,2013-04-06 21:43:00,
2013-04-06 15:53:00,64.0,15.0,-100.00,WNW,282,11.0,27.0,15,0.00,,,0.00,888.000000,,2013-04-06 21:53:00,
2013-04-06 16:02:00,64.0,15.0,-100.00,WNW,282,11.0,27.0,15,0.00,,,0.00,888.000000,,2013-04-06 22:02:00,
2013-04-06 16:44:00,62.0,14.0,-100.00,WSW,252,14.0,23.0,15,0.00,,,0.00,663.000000,,2013-04-06 22:44:00,
2013-04-06 16:53:00,62.0,14.0,-100.00,WSW,252,14.0,23.0,15,0.00,,,0.00,663.000000,,2013-04-06 22:53:00,
2013-04-06 17:03:00,62.0,14.0,-100.00,WSW,252,14.0,23.0,15,0.00,,,0.00,663.000000,,2013-04-06 23:03:00,
2013-04-06 17:34:00,61.0,14.0,-100.00,WSW,246,14.0,24.0,16,0.00,,,0.00,564.000000,,2013-04-06 23:34:00,
2013-04-06 17:43:00,61.0,14.0,-100.00,WSW,246,14.0,24.0,16,0.00,,,0.00,564.000000,,2013-04-06 23:43:00,
2013-04-06 17:53:00,61.0,14.0,-100.00,WSW,246,14.0,24.0,16,0.00,,,0.00,564.000000,,2013-04-06 23:53:00,
2013-04-06 18:02:00,61.0,14.0,-100.00,WSW,246,14.0,24.0,16,0.00,,,0.00,564.000000,,2013-04-07 00:02:00,
2013-04-06 19:33:00,55.0,12.0,-100.00,West,271,8.0,18.0,18,-99.99,,,0.00,85.000000,,2013-04-07 01:33:00,
2013-04-06 19:43:00,55.0,12.0,-100.00,West,271,8.0,18.0,18,-99.99,,,0.00,85.000000,,2013-04-07 01:43:00,
2013-04-06 19:53:00,55.0,12.0,-100.00,West,271,8.0,18.0,18,-99.99,,,0.00,85.000000,,2013-04-07 01:53:00,
2013-04-06 20:02:00,55.0,12.0,-100.00,West,271,8.0,18.0,18,-99.99,,,0.00,85.000000,,2013-04-07 02:02:00,
2013-04-06 20:33:00,53.0,16.0,-100.00,WNW,284,9.0,16.0,23,0.00,,,0.00,5.000000,,2013-04-07 02:33:00,
2013-04-06 20:43:00,53.0,16.0,-100.00,WNW,284,9.0,16.0,23,0.00,,,0.00,5.000000,,2013-04-07 02:43:00,
2013-04-06 20:52:00,53.0,16.0,-100.00,WNW,284,9.0,16.0,23,0.00,,,0.00,5.000000,,2013-04-07 02:52:00,
2013-04-06 21:02:00,53.0,16.0,-100.00,WNW,284,9.0,16.0,23,0.00,,,0.00,5.000000,,2013-04-07 03:02:00,
2013-04-06 21:35:00,53.0,14.0,-100.00,WNW,293,7.0,14.0,21,0.00,,,0.00,0.000000,,2013-04-07 03:35:00,
2013-04-06 21:44:00,53.0,14.0,-100.00,WNW,293,7.0,14.0,21,0.00,,,0.00,0.000000,,2013-04-07 03:44:00,
2013-04-06 21:54:00,53.0,14.0,-100.00,WNW,293,7.0,14.0,21,0.00,,,0.00,0.000000,,2013-04-07 03:54:00,
2013-04-06 22:03:00,53.0,14.0,-100.00,WNW,293,7.0,14.0,21,0.00,,,0.00,0.000000,,2013-04-07 04:03:00,
2013-04-06 22:32:00,51.0,14.0,-100.00,WNW,287,8.0,14.0,22,0.00,,,0.00,0.000000,,2013-04-07 04:32:00,
2013-04-06 22:43:00,51.0,14.0,-100.00,WNW,287,8.0,14.0,22,0.00,,,0.00,0.000000,,2013-04-07 04:43:00,
2013-04-06 22:53:00,51.0,14.0,-100.00,WNW,287,8.0,14.0,22,0.00,,,0.00,0.000000,,2013-04-07 04:53:00,
2013-04-06 23:02:00,51.0,14.0,-100.00,WNW,287,8.0,14.0,22,0.00,,,0.00,0.000000,,2013-04-07 05:02:00,
2013-04-06 23:34:00,50.0,15.0,-100.00,West,275,6.0,17.0,24,0.00,,,-99.99,0.000000,,2013-04-07 05:34:00,
2013-04-06 23:43:00,50.0,15.0,-100.00,West,275,6.0,17.0,24,0.00,,,-99.99,0.000000,,2013-04-07 05:43:00,
2013-04-06 23:52:00,50.0,15.0,-100.00,West,275,6.0,17.0,24,0.00,,,-99.99,0.000000,,2013-04-07 05:52:00,